Gainesville, FL

1:45 PM EST on November 23, 2017 (GMT -0500)
Gainesville Regional

Weather History for KGNV - November, 2013

Change the Weather History Date:

Friday, November 1, 2013

  Actual Average Record
Temperature  
Mean Temperature 75 °F 66 °F  
Max Temperature 86 °F 78 °F 90 °F (1914)
Min Temperature 63 °F 55 °F 32 °F (1993)
Degree Days  
Heating Degree Days 0 2  
Month to date heating degree days 0 2  
Since 1 July heating degree days 15 29  
Cooling Degree Days 10 4  
Month to date cooling degree days 10 4  
Year to date cooling degree days 2751 2554  
Growing Degree Days 24 (Base 50)    
Moisture  
Dew Point 67 °F    
Average Humidity 72    
Maximum Humidity 93    
Minimum Humidity 51    
Precipitation  
Precipitation T in 0.07 in 1.18 in (1932)
Month to date precipitation T 0.07  
Year to date precipitation 39.98 42.94  
Snow  
Snow 0.00 in 0.00 in 0.00 in ()
Month to date snowfall 0.0 0.0  
Since 1 July snowfall 0.0 0.0  
Since 1 September snowfall 0.0 0.0  
Snow Depth 0.00 in    
Sea Level Pressure  
Sea Level Pressure 29.91 in    
Wind  
Wind Speed 8 mph (SSW)    
Max Wind Speed 20 mph    
Max Gust Speed 30 mph    
Visibility 10 miles    
Events      
T = Trace of Precipitation, MM = Missing Value Source: NWS Daily Summary

Daily Weather History Graph

Daily Weather History Graph

Search for Another Location

Airport or City:

Trip Planner

Search our weather history database for the weather conditions in past years. The results will help you decide how hot, cold, wet, or windy it might be!

Date:

Astronomy

Nov. 01, 2013 Rise Set
Actual Time 7:42 AM EDT 6:42 PM EDT
Civil Twilight 7:18 AM EDT 7:06 PM EDT
Nautical Twilight 6:49 AM EDT 7:35 PM EDT
Astronomical Twilight 6:21 AM EDT 8:02 PM EDT
Moon 5:41 AM EDT (11/1) 5:28 PM EDT (11/1)
Length of Visible Light 11h 48m
Length of Day
10h 59m
Waning Crescent, 4% of the Moon is Illuminated
Nov 1
Waning Crescent
Nov 3
New
Nov 10
First Quarter
Nov 17
Full
Nov 25
Last Quarter

Hourly Weather History & Observations

Time (EDT) Temp. Heat Index Dew Point Humidity Pressure Visibility Wind Dir Wind Speed Gust Speed Precip Events Conditions
12:53 AM 69.1 °F - 64.0 °F 84% 30.01 in 10.0 mi Calm Calm - N/A   Partly Cloudy
1:53 AM 66.0 °F - 63.0 °F 90% 29.98 in 10.0 mi ESE 3.5 mph - N/A   Clear
2:53 AM 64.0 °F - 62.1 °F 93% 29.96 in 9.0 mi Calm Calm - N/A   Clear
3:53 AM 64.0 °F - 62.1 °F 93% 29.95 in 8.0 mi Calm Calm - N/A   Clear
4:53 AM 66.0 °F - 63.0 °F 90% 29.95 in 10.0 mi Calm Calm - N/A   Clear
5:53 AM 68.0 °F - 64.0 °F 87% 29.95 in 10.0 mi South 3.5 mph - N/A   Mostly Cloudy
6:53 AM 66.9 °F - 64.0 °F 90% 29.95 in 10.0 mi SSE 5.8 mph - N/A   Clear
7:53 AM 68.0 °F - 64.0 °F 87% 29.95 in 10.0 mi South 4.6 mph - N/A   Clear
8:53 AM 70.0 °F - 66.0 °F 87% 29.95 in 10.0 mi South 4.6 mph - N/A   Clear
9:53 AM 72.0 °F - 66.9 °F 84% 29.94 in 10.0 mi SSE 5.8 mph - N/A   Clear
10:53 AM 80.1 °F 82.9 °F 69.1 °F 69% 29.95 in 10.0 mi South 11.5 mph 17.3 mph N/A   Scattered Clouds
11:53 AM 82.0 °F 84.5 °F 66.9 °F 60% 29.93 in 10.0 mi South 16.1 mph 21.9 mph N/A   Overcast
12:53 PM 82.9 °F 85.0 °F 66.0 °F 56% 29.93 in 10.0 mi SW 10.4 mph 17.3 mph N/A   Overcast
1:53 PM 84.9 °F 86.6 °F 64.9 °F 51% 29.90 in 10.0 mi SW 17.3 mph 23.0 mph N/A   Overcast
2:53 PM 84.0 °F 87.0 °F 68.0 °F 58% 29.89 in 10.0 mi WSW 13.8 mph 23.0 mph N/A   Overcast
3:53 PM 80.1 °F 82.7 °F 68.0 °F 67% 29.88 in 10.0 mi SW 15.0 mph 19.6 mph N/A   Overcast
4:53 PM 81.0 °F 84.4 °F 70.0 °F 69% 29.86 in 10.0 mi SW 8.1 mph 16.1 mph N/A   Scattered Clouds
5:53 PM 80.1 °F 83.2 °F 70.0 °F 71% 29.85 in 10.0 mi SW 8.1 mph - N/A   Clear
6:53 PM 78.1 °F - 70.0 °F 76% 29.85 in 10.0 mi SSW 6.9 mph - N/A   Clear
7:53 PM 77.0 °F - 71.1 °F 82% 29.86 in 10.0 mi SSW 6.9 mph - N/A   Clear
8:53 PM 77.0 °F - 71.1 °F 82% 29.87 in 10.0 mi SW 5.8 mph - N/A   Scattered Clouds
9:53 PM 75.9 °F - 71.1 °F 85% 29.87 in 10.0 mi SW 5.8 mph - N/A   Clear
10:53 PM 75.9 °F - 71.1 °F 85% 29.85 in 10.0 mi South 6.9 mph - N/A   Mostly Cloudy
11:02 PM 75.2 °F - 71.6 °F 89% 29.87 in 10.0 mi South 5.8 mph - N/A   Scattered Clouds
11:21 PM 75.2 °F - 71.6 °F 89% 29.86 in 10.0 mi South 8.1 mph - N/A   Mostly Cloudy
11:53 PM 77.0 °F - 72.0 °F 84% 29.86 in 10.0 mi South 9.2 mph - N/A   Mostly Cloudy